Location: Cisewo
(53.3833°N, 14.9000°E)
Time: 05:25:18
(UTC+00:00)

NOAA 18 - Pass Details

Date: 22 September 2021
Orbit: 841 x 860 km, 99.0° (Epoch: 17 October)

Event Time Altitude Azimuth Distance (km) Brightness Sun altitude
Exits shadow 18:37:23 20° 86° (E) 1,872 6.5 -15.2°
Maximum altitude 18:39:26 25° 54° (NE) 1,661 6.4 -15.5°
Drops below altitude 10° 18:43:47 10° 2° (N) 2,484 7.9 -16.1°
Sets 18:46:33 0° 349° (N) 3,427 8.9 -16.5°
